Regional Weather Roundup
Issued by NWS

Home | Current Version | Previous Version | Text Only | Print | Product List | Glossary On
Versions: 1 2 3 4 5 6 7 8 9 10 11 12 13 14 15 16 17 18 19 20 21 22 23 24 25 26 27 28
000
ASUS45 KBOU 150610
RWRCO

WEATHER ROUNDUP FOR COLORADO
NATIONAL WEATHER SERVICE DENVER/BOULDER CO
1100 PM MST THU DEC 14 2017

NOTE: "FAIR" INDICATES FEW OR NO CLOUDS BELOW 12000 FEET WITH NO
SIGNIFICANT WEATHER AND/OR OBSTRUCTIONS TO VISIBILITY.

COZ001>005-013-030-031-150700-
...NORTHWEST COLORADO...

CITY           SKY/WX    TMP DP  RH WIND       PRES   REMARKS
CRAIG          FAIR       5  -1  76 CALM      30.37S
HAYDEN         FAIR      18  12  77 E9        30.36S WCI   7
MEEKER         FAIR      12   8  84 NE5       30.37S WCI   4
RABBIT EARS PA FAIR      12   9  85 W10       30.26S WCI  -1
STEAMBOAT SPGS FAIR      14  10  85 CALM      30.35S
WALDEN         FAIR       1  -4  78 SE9       30.31F WCI -14
$$

COZ006>008-011-150700-
...WEST CENTRAL VALLEYS...

CITY           SKY/WX    TMP DP  RH WIND       PRES   REMARKS
GRAND JUNCTION FAIR      28  14  55 S5        30.37R WCI  23
MONTROSE       FAIR      25  17  72 E9        30.40S WCI  15
EAGLE          FAIR      11   5  77 CALM      30.43R
RIFLE          FAIR      20   9  62 SE7       30.40R WCI  11
DELTA          FAIR      25   8  48 NE8       30.40R WCI  16
NUCLA          FAIR      25  12  58 SE6       30.40R WCI  18
$$

COZ017>023-064>068-150700-
...SOUTHWEST COLORADO...

CITY           SKY/WX    TMP DP  RH WIND       PRES   REMARKS
DURANGO        FAIR      18  15  88 N6        30.27R WCI  10
CORTEZ         FAIR      24   7  48 SE5       30.29S WCI  18
PAGOSA SPRINGS FAIR      21  20  95 CALM      30.29R
TELLURIDE      FAIR      20   8  57 CALM      30.36S
WOLF CREEK PAS FAIR      12  -4  48 N10       30.32R WCI  -1
$$

COZ009-010-012-014-032>034-037-058>063-150700-
...CENTRAL COLORADO...

CITY           SKY/WX    TMP DP  RH WIND       PRES   REMARKS
ASPEN          FAIR      16   5  62 SW9       30.36R WCI   4
BUENA VISTA    FAIR      22   5  47 NW29G36   30.26R WCI   5
COPPER MTN     NOT AVBL
BERTHOUD PASS  FAIR       1  -9  60 NW25      30.22R WCI -22
COTTONWOOD PAS FAIR      28  -6  22 W13G25    30.25R WCI  18
GUNNISON       FAIR      13   5  70 N6        30.36R WCI   4
KREMMLING      FAIR      10   7  85 CALM      30.39R
LEADVILLE      FAIR       2  -3  80 NE8       30.30S WCI -12
MONARCH PASS   FAIR       9   0  66 W24       30.36R WCI -12
SALIDA         FAIR      19   7  60 W6        30.37R WCI  11
SUNLIGHT       FAIR      14  -4  44 CALM      30.36S
WILKERSON PASS FAIR      14  -8  37 N13G22    30.22R WCI   0
$$

COZ069>075-150700-
...SAN LUIS VALLEY/SANGRE DE CRISTO MOUNTAINS...

CITY           SKY/WX    TMP DP  RH WIND       PRES   REMARKS
ALAMOSA        MOCLDY     2  -1  88 W7        30.29R FOG     WCI -11
DEL NORTE      FAIR      16   7  66 W9        30.29R WCI   5
LA VETA PASS   FAIR      16  12  86 S16G23      N/A  WCI   0
SAGUACHE       FAIR      27  10  50 N13       30.29S WCI  16
$$

COZ035-036-038>040-150700-
...NORTHERN COLORADO FRONT RANGE...

CITY           SKY/WX    TMP DP  RH WIND       PRES   REMARKS
DENVER INTL AP FAIR      24  15  68 S13       30.19F WCI  12
DMNS CITY PARK NOT AVBL
AURORA         CLEAR     21  16  81 S12       30.19F WCI   9
FRONT RANGE AP FAIR      18  14  82 S7        30.20F WCI   9
ERIE MUNI ARPT FAIR      26  20  80 SW5       30.24F WCI  20
BOULDER MUN AP FAIR      27  19  74 W5        30.18F WCI  21
CENTENNIAL     FAIR      21  17  84 S8        30.19F WCI  11
BROOMFIELD     FAIR      28  19  69 S5        30.19F WCI  23
FORT COLLINS   FAIR      25  20  81 S5        30.20F WCI  19
LONGMONT       FAIR      20  15  83 W5        30.21F WCI  13
$$

COZ041-046-047-076>085-087-088-150700-
...PIKES PEAK/PALMER DIVIDE AND SOUTHERN FOOTHILLS...

CITY           SKY/WX    TMP DP  RH WIND       PRES   REMARKS
COLO. SPRINGS  FOG       26  25  96 S3        30.25S VSB 3/4
A. F. ACADEMY  FAIR      11   8  85 N9        30.22F WCI  -1
SCHRIEVER AFB  FRZ RAIN  25  25 100 W6        30.25F VSB 3/4 WCI  18
CHEYENNE MTN   FAIR      23  21  91 N5        30.17S WCI  17
ELLICOTT         N/A    N/A N/A N/A W5        30.23F
FALCON         CLOUDY    22  22  98 SW9       30.23S FOG     WCI  12
FORT CARSON    CLOUDY    28  25  90 S7        30.24S WCI  20
LIMON          FAIR      14  12  92 W7        30.22F WCI   4
MONUMENT HILL  FAIR      14  10  85 SW15      30.21F WCI  -1
CANON CITY     FAIR      28  27  93 SW8       30.26F WCI  20
WALSENBURG     FAIR      25  23  93 SW5       30.25F WCI  19
TRINIDAD       FAIR      24  23  96 SW6       30.27F WCI  17
$$

COZ042>045-048>051-090-091-150700-
...NORTHEAST COLORADO...

CITY           SKY/WX    TMP DP  RH WIND       PRES   REMARKS
GREELEY ARPT   FAIR      14   8  77 N6        30.21F WCI   5
AKRON          FAIR      19  15  84 SW12      30.19F WCI   7
BURLINGTON     FAIR      14  11  87 W10       30.24S WCI   1
WRAY           FAIR      19  16  86 W10       30.22F WCI   8
YUMA           FAIR      14  10  85 W7        30.21F WCI   4
STERLING       FAIR      12  10  92 S8        30.20F WCI   1
HOLYOKE        FAIR      21  16  79 W7        30.21F WCI  13
FORT MORGAN    FAIR      17  13  84 W8        30.22S WCI   7
$$

COZ086-089-092>099-150700-
...SOUTHEAST COLORADO...

CITY           SKY/WX    TMP DP  RH WIND       PRES   REMARKS
PUEBLO         FAIR      22  20  92 NW5       30.28F WCI  16
LA JUNTA       FAIR      26  22  84 W12       30.28F WCI  16
LAMAR          FAIR      20  17  88 W6        30.28F WCI  12
SPRINGFIELD      N/A     17  15  92 W8        30.27S WCI   7
$$




USA.gov is the U.S. government's official web portal to all federal, state and local government web resources and services.